Wind_Gust
22 23 23 23 23 24 24 24 25 25 26 26 25 25 25 25 25 25 25 24 24 24 25 26 25 26 27 28 29 27 26 21 24 18 13 12 9 6 7 8 10 11 10 6 11 14 9 10 11 15 7 8 7 10 8 8 9 13 26 30 30 25 26 20 28 27 14 23 21 16 18 22 23 12 11 9 14 16 12 16 10 10 12 10 11 17 23 26
23 23 23 23 23 24 24 25 25 25 26 26 25 25 25 25 25 25 25 25 24 24 25 24 25 25 26 26 28 26 22 15 18 13 19 13 9 7 9 8 9 12 9 7 10 8 8 11 9 11 8 10 6 9 7 16 9 25 17 24 34 24 20 14 15 14 16 19 17 20 17 22 25 14 11 17 9 15 19 12 9 11 11 15 16 20 22 25
23 23 24 24 24 24 25 25 25 25 25 25 25 25 24 24 25 25 24 24 24 24 24 24 24 25 26 25 25 22 17 14 7 10 9 8 7 8 6 6 7 9 9 7 4 6 5 6 6 6 7 8 8 10 8 12 14 14 16 27 27 9 8 10 10 9 11 11 13 18 17 19 14 18 7 18 21 14 23 15 9 15 11 12 17 19 23 25
24 24 24 25 25 25 25 25 25 26 25 25 25 24 24 24 24 24 24 24 24 24 24 24 24 25 26 25 24 18 9 8 6 6 7 8 7 6 5 5 5 7 5 4 5 5 6 7 6 5 6 7 7 6 13 12 19 11 18 26 14 10 11 9 11 11 11 10 8 8 10 12 11 11 13 15 23 25 21 14 16 17 17 17 20 22 24 25
24 25 25 25 26 26 26 26 26 26 26 26 26 25 25 24 24 23 23 23 23 22 23 23 23 24 26 25 22 9 6 7 10 5 14 9 8 6 8 7 7 6 6 6 7 8 8 8 5 7 6 9 6 7 9 7 7 9 14 13 8 9 10 8 9 8 10 6 10 9 8 16 14 12 19 21 29 29 21 13 17 20 19 21 22 25 26 27
25 25 25 26 26 26 27 27 26 26 26 26 25 25 25 24 24 24 23 23 22 22 21 21 22 23 23 22 21 6 6 11 7 10 20 11 11 10 11 11 11 7 5 9 7 6 12 9 8 6 6 7 6 12 8 7 8 21 9 8 10 9 10 11 10 8 8 10 10 9 8 14 8 14 11 15 24 17 8 14 21 20 21 25 23 26 26 27
25 25 26 27 27 27 27 27 27 27 27 27 26 26 26 25 25 24 24 23 22 21 20 20 20 22 22 19 13 8 6 16 7 12 17 14 14 14 12 11 10 11 11 10 12 12 7 10 9 7 6 5 7 9 7 9 6 8 16 11 11 12 7 12 12 8 7 5 9 9 8 9 10 15 8 18 17 13 16 14 19 20 24 21 22 24 28 30
25 26 26 27 27 27 27 27 28 27 27 27 26 26 27 27 26 27 27 25 22 21 20 18 18 19 18 16 12 10 6 11 8 8 16 15 13 13 11 6 11 8 12 9 10 12 6 11 9 6 7 7 7 6 7 8 8 10 11 11 11 11 12 15 16 15 10 8 8 5 12 10 9 14 15 24 23 15 16 15 15 13 19 25 26 26 24 27
26 26 26 26 27 26 27 27 27 27 27 26 26 26 26 27 27 28 29 26 23 20 18 16 15 14 10 5 8 11 6 9 6 9 12 15 13 10 9 10 10 9 5 6 7 7 7 5 6 6 7 6 7 8 8 8 11 8 8 10 9 11 13 14 12 11 14 12 6 13 16 11 13 12 23 30 25 19 16 12 13 11 13 22 31 34 28 26
26 26 26 27 27 27 27 28 28 28 28 28 28 27 27 28 28 28 29 27 23 19 17 14 13 9 9 10 7 8 8 5 5 10 11 11 13 13 9 6 7 8 8 8 8 8 10 6 5 5 6 5 6 6 5 8 10 5 8 9 10 11 10 8 9 12 11 15 11 14 17 18 11 9 31 18 11 11 11 8 6 14 16 18 18 24 32 34
26 27 27 27 28 27 28 29 29 29 29 30 30 30 28 28 29 28 27 25 21 17 13 13 9 7 6 6 8 10 7 6 6 12 12 9 10 10 13 6 4 6 6 5 5 5 5 4 7 5 7 9 6 8 8 8 8 7 9 10 7 7 8 10 10 14 11 16 8 11 16 14 17 17 39 26 11 7 8 7 5 10 16 18 17 18 21 27
27 28 28 28 28 28 29 29 29 30 30 31 30 29 28 29 29 29 26 22 17 13 10 8 7 9 7 6 6 15 5 6 11 11 11 8 9 8 7 6 5 6 6 10 10 6 6 5 6 6 9 7 9 7 7 5 7 8 7 16 9 6 16 11 16 15 14 18 9 6 15 24 27 33 39 18 5 7 9 9 5 10 15 18 19 18 16 19
28 28 29 29 29 29 29 30 30 31 31 31 29 29 28 29 29 26 22 16 10 7 9 9 9 8 6 11 15 13 8 9 9 12 13 5 10 9 10 8 7 6 7 6 10 7 6 7 6 7 5 6 6 12 8 8 9 7 8 9 15 12 15 12 9 12 12 12 11 13 27 29 36 37 33 9 6 7 14 18 11 9 12 17 21 21 20 15
28 28 29 30 30 30 30 30 32 32 32 30 30 29 28 27 26 21 15 7 6 7 8 8 10 7 6 12 15 7 9 6 8 8 11 8 11 15 6 5 8 8 6 9 9 9 7 6 6 5 5 9 10 8 12 12 8 13 9 9 15 15 16 8 9 5 12 10 13 16 31 28 21 27 22 8 7 5 14 15 8 9 11 15 17 19 21 21
28 29 30 30 31 31 31 32 31 31 31 30 32 30 27 25 21 14 7 9 9 8 12 11 8 8 8 19 9 11 14 6 7 8 8 10 12 12 11 11 5 6 7 8 7 5 6 7 6 6 8 5 7 8 10 9 10 8 14 15 8 13 11 13 9 9 11 10 10 18 30 34 20 25 13 10 12 8 16 17 15 10 12 14 17 20 21 21
29 30 30 30 31 31 31 32 31 32 31 32 30 31 26 20 13 8 10 9 10 10 12 6 5 7 6 13 6 7 7 6 13 13 7 4 5 9 7 8 7 5 5 5 7 8 6 6 6 10 6 5 7 9 11 13 11 11 13 12 10 8 11 16 10 7 8 12 11 20 28 19 12 17 12 12 16 19 21 19 16 10 13 16 16 20 22 21
29 30 30 30 31 31 32 31 31 31 31 31 31 27 24 13 9 11 10 9 8 6 5 7 7 6 10 8 8 8 10 11 7 9 10 9 11 10 6 6 5 7 7 5 7 10 6 8 6 7 8 7 7 8 13 14 15 10 7 12 7 11 10 13 12 10 9 9 12 15 27 27 17 20 22 19 8 12 18 18 20 14 14 17 18 19 20 21
29 29 30 31 31 31 31 31 31 31 29 30 28 21 22 13 8 9 10 8 7 9 9 7 9 6 11 9 11 14 11 14 14 18 15 14 8 7 7 5 4 6 7 8 6 8 5 8 7 9 6 6 8 9 12 20 15 7 6 8 10 9 11 14 11 10 18 14 16 18 25 27 18 17 16 13 15 18 20 18 14 15 14 15 16 19 20 22
30 30 30 30 30 31 31 30 31 31 28 29 23 16 9 8 6 5 6 5 6 11 13 16 15 19 9 17 13 11 12 14 17 6 11 9 7 5 5 4 6 6 6 8 8 5 8 7 8 8 14 11 15 15 19 9 9 8 6 8 9 16 15 14 10 11 12 20 23 23 28 25 21 23 18 19 16 17 23 22 15 15 14 16 17 19 20 21
30 30 31 30 30 29 30 29 28 28 27 19 19 15 13 20 16 9 11 8 11 6 5 6 6 7 14 10 10 11 16 6 8 6 9 8 8 6 5 5 7 9 7 10 7 7 6 11 15 15 12 14 11 13 14 10 8 8 8 11 15 17 21 12 14 15 14 20 24 27 26 28 23 20 16 21 23 27 27 25 25 19 15 14 16 19 22 23
30 30 30 31 30 30 28 28 25 25 23 12 12 16 18 13 9 16 20 16 8 5 7 8 8 9 13 13 13 12 18 8 6 8 11 7 4 8 9 7 8 9 7 7 9 8 8 14 16 12 12 11 12 11 10 11 11 14 17 16 19 14 24 10 16 11 14 18 24 21 25 29 27 24 20 21 23 31 29 26 26 23 17 15 17 19 22 24
30 30 31 31 30 30 28 27 24 22 13 8 13 18 11 8 8 6 6 17 11 5 5 9 5 10 10 12 9 6 6 15 14 12 9 9 8 10 9 8 6 15 6 6 8 12 14 21 12 10 11 11 9 9 10 13 16 13 18 16 18 23 15 15 17 16 16 16 26 21 26 32 25 22 17 19 24 31 28 24 26 25 23 18 16 19 21 21
30 32 30 30 30 29 28 25 23 13 11 14 15 10 10 8 6 7 6 9 16 8 6 4 5 8 12 7 7 7 11 12 16 18 16 10 10 9 9 11 8 8 6 7 14 13 21 12 12 12 9 10 8 8 10 10 11 16 15 17 25 15 13 15 9 5 10 18 20 18 28 33 25 20 20 22 27 30 24 23 24 22 26 25 21 19 21 21
31 31 32 32 31 30 26 25 13 8 10 7 9 11 5 6 6 7 6 7 10 14 8 6 6 6 9 10 7 6 8 11 7 17 9 12 13 5 8 6 10 7 13 10 14 20 25 14 7 9 10 12 14 12 12 14 18 16 18 22 25 16 14 17 19 13 15 20 20 22 28 34 24 24 19 20 25 28 27 27 27 24 22 21 18 20 22 25
32 32 32 32 29 31 28 17 10 8 7 5 5 5 5 6 7 6 7 8 7 12 6 4 6 8 9 4 5 15 6 8 8 9 8 10 14 9 8 7 9 10 8 9 10 17 23 19 13 14 11 11 14 16 17 16 21 18 19 22 20 14 15 16 18 16 18 21 17 12 28 29 14 12 17 18 16 22 24 26 29 27 26 22 21 21 21 23
32 32 32 30 29 30 23 7 6 7 7 7 6 6 6 6 5 7 10 7 5 13 9 7 7 9 7 7 10 11 5 7 5 9 6 8 8 7 12 11 9 15 10 10 17 23 18 6 13 14 16 17 18 22 15 16 22 18 19 16 21 20 18 19 18 13 18 22 17 13 19 36 12 16 14 15 19 24 21 23 29 27 26 25 23 21 20 22
33 32 31 29 28 26 13 9 7 7 6 6 5 8 7 7 5 6 10 11 11 10 10 12 8 17 14 7 15 9 17 14 12 6 7 10 10 6 8 10 11 7 6 9 15 22 7 7 10 12 16 20 19 22 16 19 20 26 12 14 14 16 18 19 19 19 22 12 15 11 22 31 35 25 12 13 22 27 25 25 27 28 23 19 19 20 20 23
33 32 30 29 26 17 8 9 10 6 6 6 6 8 7 5 5 8 12 11 20 11 12 14 8 8 10 14 8 12 10 12 16 6 6 10 8 9 7 9 10 10 7 7 21 11 7 12 7 13 13 18 21 15 10 19 23 18 13 11 13 14 16 17 17 18 18 17 23 19 17 28 34 20 12 16 21 26 28 28 30 26 22 18 18 22 22 22
33 32 30 27 26 13 6 7 6 5 5 5 6 7 7 7 8 11 9 11 10 16 14 9 10 7 13 11 12 7 7 7 8 7 7 7 10 7 9 7 7 7 7 11 21 24 13 12 8 6 10 20 12 11 13 17 22 14 15 10 11 11 13 15 17 16 16 17 25 21 18 31 35 20 11 13 21 28 28 26 27 27 30 26 18 19 19 19
34 32 31 26 16 7 6 5 11 8 6 5 6 5 6 9 9 14 15 9 16 16 9 13 15 15 11 23 14 8 14 8 6 13 9 8 9 7 6 7 7 8 9 8 20 25 24 15 17 21 21 18 12 12 13 17 22 6 7 10 11 10 14 14 16 17 15 22 28 24 21 22 36 20 13 16 23 23 26 27 26 26 28 31 25 16 18 18
35 34 29 21 8 7 10 7 11 6 6 6 6 7 8 11 14 12 11 15 10 12 15 8 19 10 19 20 24 9 4 7 10 11 12 9 7 8 7 8 8 8 9 10 18 16 14 15 16 18 16 17 12 17 11 15 14 11 14 9 13 18 11 15 14 14 24 30 25 24 21 18 32 19 17 19 22 26 25 27 30 27 28 29 23 15 17 19
37 33 28 12 8 7 5 8 5 6 5 6 6 9 7 7 16 18 10 8 14 15 9 17 9 14 19 8 9 15 22 11 6 12 19 19 16 12 7 8 9 14 11 8 16 11 17 20 18 11 9 17 15 15 18 11 12 15 14 14 13 16 14 18 19 18 26 35 15 11 17 24 34 32 29 23 25 30 32 34 34 30 30 30 27 17 16 17
35 30 21 6 10 6 9 6 5 5 6 5 8 6 13 14 12 8 12 11 13 7 18 6 12 16 16 11 11 10 6 9 8 7 8 9 10 10 7 8 7 9 18 8 13 16 17 9 7 13 7 14 13 21 22 18 20 17 20 17 18 26 24 20 23 22 22 16 16 17 12 30 22 28 27 33 33 33 32 31 31 30 29 30 32 26 19 19
30 23 9 4 10 10 8 7 7 6 6 6 8 8 15 18 9 6 6 6 11 7 7 10 17 13 5 9 10 13 15 7 9 21 10 10 6 12 10 8 8 3 8 8 14 11 20 22 11 10 11 11 21 24 22 18 10 22 16 20 21 25 26 22 23 22 22 22 13 10 14 21 15 21 20 28 31 31 32 35 33 32 34 33 34 34 27 23
27 10 5 6 5 10 13 10 6 6 5 8 18 17 14 9 6 6 8 9 13 11 10 6 16 8 10 7 5 6 8 17 7 17 12 12 14 12 11 8 7 7 7 13 9 13 13 23 16 11 7 10 18 20 20 17 22 23 11 12 21 35 20 29 18 18 18 21 24 22 27 11 23 17 21 24 26 26 28 32 34 33 32 30 28 27 24 22
13 9 4 6 7 6 6 6 6 7 6 13 20 17 8 7 8 6 9 8 7 12 19 15 7 7 7 10 5 5 6 10 11 15 10 9 14 12 6 7 11 16 13 12 8 16 11 19 9 7 8 13 16 9 15 18 23 17 21 32 28 16 15 19 14 7 6 16 35 29 27 32 26 29 28 26 28 29 29 33 36 34 31 28 27 26 25 22
14 13 9 9 9 10 8 5 5 6 12 16 16 6 5 9 7 8 8 9 10 8 6 13 16 8 11 13 12 9 8 8 9 14 20 11 19 11 7 8 7 10 13 10 12 12 14 29 9 17 20 12 13 13 15 20 23 11 18 19 11 10 13 24 26 12 20 29 31 15 27 27 23 36 16 26 27 28 28 30 33 35 24 18 20 20 23 20
13 9 6 6 9 11 6 5 7 12 12 13 10 5 5 6 5 6 5 9 7 8 6 6 16 3 8 10 16 10 17 14 9 14 19 9 21 8 6 10 10 14 14 9 11 9 6 29 15 18 14 10 7 8 12 17 16 25 14 8 22 16 22 21 16 20 24 25 27 21 19 28 30 37 27 26 27 22 26 28 27 23 21 22 21 21 20 18
6 4 6 7 10 9 10 6 12 10 11 19 7 9 5 9 6 6 7 6 6 5 4 8 6 7 5 8 11 12 11 23 20 19 19 10 16 9 10 7 8 10 9 12 13 10 8 16 21 7 10 8 7 7 17 14 19 17 10 18 8 14 21 22 28 15 19 25 16 24 20 39 24 27 25 25 22 26 26 26 24 28 24 16 18 17 17 17
10 9 6 6 12 10 9 9 13 16 16 9 3 6 4 8 9 10 6 5 8 5 6 3 5 8 6 11 7 19 9 12 21 23 11 11 16 11 12 8 7 11 10 16 14 10 12 13 24 12 6 11 19 13 14 15 17 21 22 25 15 20 10 15 14 25 28 24 23 27 33 36 24 14 17 17 14 21 19 23 24 22 25 28 24 24 23 21
6 8 8 8 14 13 9 20 23 15 9 6 6 6 5 8 12 7 7 5 6 3 5 6 6 7 7 11 12 7 20 19 22 19 12 13 13 20 6 8 7 11 8 11 14 9 12 14 23 22 20 16 23 12 12 10 15 21 26 27 25 22 21 20 22 14 20 29 28 21 37 37 24 18 21 21 23 26 21 20 26 20 25 25 28 25 22 20
10 13 10 10 13 11 11 14 16 5 10 7 10 7 11 9 8 9 9 5 4 6 7 6 6 8 7 9 10 10 22 23 12 14 13 16 11 15 10 10 7 7 12 19 12 14 18 10 18 29 27 21 21 17 15 15 14 9 17 25 22 23 20 20 22 15 16 25 18 20 23 44 19 17 16 17 22 21 28 28 28 22 23 26 26 24 22 20
14 8 10 10 12 7 10 11 7 11 7 7 8 6 6 8 7 8 9 6 10 5 7 6 6 6 6 8 6 14 14 26 18 15 9 9 19 22 19 10 10 10 10 16 6 14 10 18 18 32 22 21 18 16 13 15 16 15 15 12 11 21 22 25 25 15 21 16 18 21 26 42 14 13 18 22 23 23 26 26 27 24 23 25 24 22 23 22
6 8 13 9 10 9 18 13 13 11 9 10 5 7 5 8 8 14 7 7 8 10 6 7 7 5 9 5 9 16 10 19 10 14 18 8 22 7 9 10 9 18 11 17 13 13 12 12 12 22 27 14 9 9 12 9 10 19 16 13 17 16 12 10 11 9 18 25 22 21 34 35 19 14 18 24 28 29 27 29 28 24 24 23 22 21 22 23
9 7 8 16 16 15 14 6 4 5 7 10 10 12 15 10 5 9 12 9 5 6 6 8 5 5 9 5 13 12 10 15 24 15 18 20 25 11 15 14 13 22 20 17 15 13 16 12 11 16 19 24 25 16 9 5 15 13 11 13 14 18 19 15 19 21 27 22 18 29 37 36 33 18 21 20 21 28 27 25 25 16 21 30 27 24 25 23
14 13 13 11 18 13 13 6 9 6 6 8 6 7 6 16 13 11 6 9 5 8 8 6 5 6 5 14 17 13 13 12 18 20 18 25 28 21 7 19 23 26 26 24 18 19 13 9 17 22 19 23 23 12 7 6 7 17 12 15 18 18 20 22 16 19 34 15 18 31 35 37 33 29 23 18 27 28 31 29 29 26 20 25 25 25 23 23
7 13 13 16 13 11 10 9 9 8 7 5 7 9 9 11 16 14 5 9 5 13 10 4 4 16 13 16 17 21 12 13 16 26 28 25 19 28 22 24 28 23 25 22 22 15 10 17 19 17 22 28 24 20 18 14 20 19 18 16 12 14 18 21 26 34 9 13 33 39 28 29 37 34 30 25 29 30 28 22 24 29 25 23 24 26 26 27
12 6 5 6 8 12 12 8 11 7 5 6 6 5 7 10 13 19 13 4 12 9 10 6 6 7 9 11 17 19 18 25 20 15 17 15 22 25 39 12 18 10 13 11 14 11 10 15 11 14 23 21 18 20 20 21 21 20 19 18 17 14 13 23 28 25 13 25 38 32 12 20 34 31 27 24 28 31 29 28 29 30 31 28 21 21 28 25
9 6 5 6 7 6 7 10 9 7 11 7 6 8 9 10 12 9 10 16 15 9 6 9 11 14 15 15 10 17 18 23 20 23 25 23 21 32 31 29 10 10 12 9 9 8 12 17 14 14 25 22 17 19 21 21 22 19 19 20 20 18 19 21 26 23 26 30 32 35 30 33 35 32 25 26 23 24 25 25 25 28 29 27 25 24 24 23
10 8 8 8 5 8 8 7 7 7 5 9 6 7 9 9 13 17 12 8 13 9 5 7 16 15 18 17 13 17 15 15 22 31 29 23 40 15 22 19 27 15 11 17 12 10 11 20 10 13 16 25 13 14 16 17 19 20 18 18 18 18 20 21 23 26 24 30 32 32 33 38 42 25 22 20 17 16 21 24 28 29 28 26 27 28 25 23
6 4 5 8 10 8 6 6 7 6 5 7 8 7 10 7 12 18 20 14 17 9 8 15 17 24 19 18 19 20 19 19 22 29 31 28 37 27 14 23 7 23 26 25 10 10 13 16 11 14 21 22 7 6 12 14 14 14 14 14 17 18 21 23 30 24 25 30 26 23 31 38 34 18 16 18 17 17 20 25 28 26 24 26 28 29 28 25
5 4 4 5 8 7 7 5 6 5 4 5 6 7 12 11 14 15 24 8 9 13 15 13 17 23 21 17 20 20 24 27 32 35 32 29 29 34 28 33 29 23 20 21 14 17 11 15 21 16 17 20 6 7 9 14 11 9 11 13 13 17 20 20 21 17 22 22 24 25 35 24 19 20 23 27 23 22 20 22 24 26 26 27 28 30 29 27
Wind_Speed
17 17 18 17 17 18 18 18 19 19 18 18 19 19 19 19 18 19 18 17 18 18 18 18 18 19 19 20 20 20 18 11 15 9 6 1 3 3 5 5 7 9 8 2 4 5 3 5 5 9 2 2 1 3 2 2 3 5 9 11 14 11 13 9 14 12 4 10 12 10 11 15 15 6 4 4 8 10 7 10 4 5 6 4 5 10 13 17
17 18 18 17 17 18 19 19 19 19 19 19 19 19 18 18 18 18 18 19 18 18 18 18 18 18 19 18 18 18 14 9 9 6 3 8 3 5 5 5 6 9 7 2 6 4 3 5 4 6 3 3 2 1 2 4 2 10 4 8 15 11 8 6 6 7 6 11 11 13 11 14 15 9 3 8 6 9 11 5 4 6 6 8 9 12 14 16
18 18 18 18 18 18 18 18 18 19 19 19 19 19 19 18 17 18 17 17 18 18 18 18 18 18 18 18 16 13 10 7 3 5 5 6 5 6 4 4 5 6 4 3 1 1 1 2 2 2 2 2 1 3 3 3 5 6 5 11 12 3 2 5 5 3 5 6 7 12 11 12 9 9 3 9 13 8 13 6 4 8 6 6 10 12 14 16
18 18 18 18 19 18 18 18 18 18 18 19 18 19 18 19 17 18 18 17 17 18 18 18 18 18 18 17 16 11 4 4 2 1 4 6 6 3 3 4 3 3 2 0 1 1 1 2 2 1 1 2 1 1 5 3 5 2 6 10 1 4 4 3 5 5 6 5 3 3 5 5 4 5 5 10 13 15 11 8 9 9 10 10 12 14 15 16
18 19 19 19 19 19 18 18 19 19 19 19 19 18 18 18 18 18 18 18 17 17 17 17 18 18 19 17 16 4 2 2 3 1 9 6 6 5 4 5 2 2 2 2 3 3 2 3 1 2 1 2 0 2 2 1 2 1 6 6 3 3 4 4 5 4 5 2 5 4 2 1 7 6 11 13 16 13 10 8 10 10 11 12 14 15 15 17
19 19 19 19 19 19 19 19 20 19 19 19 19 19 18 19 19 18 18 18 18 17 16 16 17 17 17 17 12 1 2 3 2 4 14 8 8 7 5 5 3 2 2 4 2 2 3 3 0 1 1 1 1 4 2 1 3 8 2 2 5 4 4 6 4 3 3 4 5 4 3 5 3 7 3 6 13 8 1 6 14 13 13 14 15 17 16 18
18 18 19 19 20 20 19 20 19 19 19 19 20 20 20 20 20 19 19 18 17 17 16 15 15 16 16 16 4 2 2 3 3 7 13 11 10 11 9 5 4 5 5 5 7 5 3 4 3 2 0 1 2 2 1 4 2 2 2 5 5 6 3 7 6 2 2 2 4 4 4 3 5 8 1 9 10 7 9 8 8 8 4 9 11 15 19 20
19 19 19 19 20 20 20 19 20 20 20 19 19 19 20 20 20 21 21 19 18 16 15 14 12 14 12 9 4 3 1 1 2 3 12 11 9 9 8 2 7 4 6 4 5 7 2 6 4 1 2 1 2 1 3 3 3 3 3 6 5 6 6 9 9 8 5 4 3 1 6 4 4 7 9 15 11 7 9 9 9 6 5 7 9 15 15 16
19 20 20 20 19 20 20 20 20 20 20 20 19 19 19 20 21 22 22 19 17 15 13 11 11 7 5 1 1 4 2 2 2 5 8 10 9 6 5 5 6 5 1 2 3 3 3 1 2 2 1 1 2 3 2 2 2 3 3 4 4 6 7 8 7 6 9 4 0 7 10 6 7 7 13 19 14 11 10 7 8 7 5 9 9 9 14 16
20 20 20 20 20 20 20 21 21 21 22 21 21 20 20 22 21 21 19 18 16 14 11 8 7 5 5 3 2 1 2 2 1 5 7 7 8 7 3 2 3 4 3 3 4 4 5 2 1 0 1 1 1 1 0 3 1 0 3 4 5 6 5 3 5 7 7 8 6 7 11 10 6 2 10 7 5 3 5 3 3 7 7 10 10 9 8 9
21 21 21 21 21 21 21 22 22 22 22 22 22 20 21 22 22 21 18 15 13 11 8 5 3 2 2 2 3 2 2 3 1 6 8 5 5 4 8 2 1 2 2 1 2 2 1 1 2 0 2 0 1 1 2 2 3 2 4 5 3 2 3 5 5 8 5 7 3 6 10 9 11 8 16 6 7 5 4 2 2 4 9 8 11 11 11 8
21 21 21 21 21 22 22 22 22 22 22 22 22 21 21 21 21 20 15 11 9 6 4 1 5 3 2 1 1 1 1 2 5 5 6 4 3 3 4 1 2 2 2 5 6 2 2 1 2 2 1 2 2 2 1 1 3 3 3 7 2 2 4 5 8 9 8 7 4 1 8 14 15 20 8 9 1 3 4 4 1 4 6 8 9 10 9 10
21 21 22 22 22 22 23 22 23 23 21 22 22 21 21 20 19 16 11 7 3 3 3 5 6 2 1 1 3 5 3 4 5 6 3 0 4 4 5 4 3 3 3 2 5 3 1 2 1 3 1 1 1 3 3 3 4 2 3 3 6 2 3 4 3 6 6 5 5 6 10 14 20 23 8 5 2 3 10 11 5 3 5 7 9 8 10 8
22 22 22 23 23 22 23 23 22 22 22 22 22 20 19 18 14 10 5 1 2 3 4 6 3 2 1 1 4 2 4 2 4 4 6 3 6 7 2 1 3 3 2 4 3 4 3 1 2 1 1 3 3 3 5 2 0 4 1 2 5 6 2 2 4 0 5 4 7 9 13 13 11 12 10 3 4 2 8 7 3 3 5 7 8 9 9 9
22 23 23 23 23 23 24 23 23 23 22 22 23 20 18 14 9 5 4 3 4 5 9 7 3 1 1 3 3 6 8 2 3 4 4 5 7 7 6 6 1 1 3 4 2 1 1 3 2 2 2 0 2 3 3 2 1 1 3 4 2 4 2 3 3 3 5 4 5 10 13 14 9 6 4 5 7 5 10 10 6 4 6 6 8 10 11 11
22 23 23 23 23 24 23 23 23 22 22 23 21 20 14 8 3 4 5 4 4 7 5 2 0 1 1 3 2 1 1 2 7 8 2 1 0 5 3 3 4 1 1 2 2 2 1 2 1 2 1 1 3 3 4 4 2 1 4 3 2 2 3 5 5 2 3 5 5 11 10 1 1 4 4 2 7 11 12 11 10 6 7 8 8 8 10 11
23 23 23 22 23 23 24 23 23 23 22 22 21 16 9 3 5 7 6 6 4 2 1 0 2 1 2 1 3 2 3 4 3 5 5 4 6 5 2 2 1 1 1 2 3 5 2 3 1 2 3 1 1 1 5 5 6 2 0 3 1 4 3 2 2 2 4 4 5 8 11 11 9 12 13 12 4 7 10 9 7 5 7 10 10 11 11 11
22 22 22 22 22 24 24 23 22 23 23 23 19 13 4 2 6 6 6 4 2 3 3 1 2 1 3 1 3 7 5 6 6 8 9 3 3 2 2 1 1 1 3 1 2 3 1 2 1 2 0 1 2 3 3 6 2 1 1 2 1 3 4 6 2 2 10 8 8 10 14 14 10 10 9 8 10 11 13 9 7 8 7 8 8 10 13 12
22 21 22 23 21 23 24 22 23 23 22 22 15 3 4 6 1 1 1 1 1 1 1 3 4 6 2 10 4 5 5 6 8 3 6 4 2 1 1 1 2 2 1 2 0 0 1 2 0 2 5 4 6 7 7 1 3 2 1 2 3 6 5 5 4 5 6 11 12 13 13 11 12 13 10 10 10 10 13 12 7 6 7 8 9 10 11 11
23 23 23 22 22 22 23 23 22 22 21 12 7 3 0 4 4 1 3 3 5 1 1 2 1 3 8 4 5 6 9 1 2 1 4 3 3 2 1 1 2 2 0 4 1 2 1 4 6 6 5 7 6 7 8 5 2 2 3 5 7 8 11 6 8 8 6 9 13 15 16 14 14 12 9 13 14 17 17 15 14 10 6 7 8 10 12 14
22 22 23 23 23 22 22 22 20 19 17 6 6 6 6 5 3 4 9 7 3 2 3 4 4 4 6 7 7 6 7 3 2 4 6 2 0 4 3 2 2 3 1 3 3 2 2 6 7 6 7 5 6 6 5 6 5 8 9 8 9 7 11 3 8 6 7 8 12 12 15 17 16 14 12 12 14 20 18 16 16 14 9 8 9 11 13 13
23 22 22 22 22 22 22 20 19 15 9 3 6 7 4 3 3 1 1 5 5 1 2 5 2 5 5 7 4 2 2 5 5 7 3 5 3 4 3 3 2 6 1 2 2 4 6 9 4 3 4 5 5 5 5 7 9 7 8 7 8 10 7 9 9 9 8 7 11 12 14 15 13 10 9 11 14 16 16 14 16 15 14 11 9 10 11 12
23 23 22 22 21 21 21 20 15 8 5 5 6 5 4 3 2 2 2 3 6 2 2 1 1 3 6 2 1 3 6 6 7 8 6 5 5 4 4 4 3 3 1 2 6 6 9 2 4 5 4 5 3 3 5 5 5 7 6 7 10 6 4 4 3 1 4 5 9 10 15 15 14 11 12 13 15 17 16 15 16 14 16 16 13 10 9 11
23 23 23 22 21 21 19 19 6 3 4 2 4 6 1 2 2 3 0 2 4 7 3 2 2 2 4 5 2 2 4 3 1 10 5 4 6 1 2 2 5 2 5 5 8 9 11 1 2 3 6 7 8 7 6 6 8 8 10 11 11 9 6 8 8 6 8 12 12 12 13 14 12 10 8 11 15 17 16 17 17 14 14 13 11 12 12 14
24 24 23 22 21 21 21 11 3 3 3 0 1 1 1 2 2 2 2 1 2 3 2 0 2 4 2 0 1 5 1 2 3 3 3 5 7 3 3 1 2 3 3 3 5 8 12 11 8 8 6 6 8 8 9 8 9 8 11 13 13 8 9 9 11 8 6 8 7 6 8 10 4 4 7 8 6 11 13 16 18 17 16 14 13 13 13 14
25 24 23 21 21 22 18 0 2 2 2 2 1 2 2 1 1 2 1 1 0 3 3 1 2 1 1 1 4 1 1 2 1 3 2 3 4 2 3 2 1 6 5 5 7 6 7 1 7 8 9 10 11 11 8 9 9 8 6 9 13 12 11 12 10 5 6 8 2 5 7 11 4 7 6 7 10 14 10 13 18 16 15 15 13 12 11 12
25 24 23 21 19 19 4 2 2 3 1 1 1 3 2 2 1 2 2 1 1 1 3 2 1 2 1 2 6 5 1 5 4 1 3 4 4 1 3 2 2 2 1 2 3 4 2 2 5 7 10 11 10 10 7 10 8 10 5 6 7 10 10 11 11 9 8 6 6 5 8 11 13 11 5 6 13 16 15 16 17 16 15 12 11 10 11 12
26 24 22 20 16 10 3 3 4 1 1 2 1 3 2 1 2 2 1 2 3 3 3 3 1 1 2 7 4 4 4 6 4 2 2 5 3 1 2 4 4 5 2 1 7 2 2 5 3 7 8 8 9 7 5 11 9 4 7 5 7 8 9 9 8 7 8 7 9 8 9 10 12 7 3 6 11 15 16 16 18 16 14 11 11 9 10 12
26 25 22 19 15 7 2 3 1 1 1 1 2 3 1 2 2 1 1 1 1 2 3 1 2 0 5 5 5 3 2 1 3 2 2 2 5 2 2 2 2 2 2 5 9 10 3 6 3 1 4 9 5 6 7 10 10 8 9 5 5 5 6 8 7 7 7 6 11 10 8 10 14 9 4 5 11 15 15 15 15 16 19 17 8 8 10 10
26 26 23 16 6 3 2 2 4 2 2 1 2 0 1 3 1 0 2 2 4 3 2 4 4 8 5 12 4 3 8 3 1 6 3 2 4 1 1 3 2 3 3 4 11 13 12 8 9 8 9 9 6 6 7 10 13 1 2 4 4 4 5 6 6 6 6 8 13 15 12 10 13 9 5 5 9 11 12 14 14 15 17 19 17 9 10 10
27 25 21 10 1 1 4 1 3 2 2 2 1 2 4 2 1 3 2 2 1 3 3 2 8 4 11 12 10 1 0 2 5 5 4 1 1 1 2 2 2 2 2 4 8 8 7 8 3 4 9 7 6 8 6 9 9 6 5 2 4 7 4 6 5 5 8 11 13 15 11 11 12 7 7 9 13 16 14 17 19 17 17 17 14 8 10 11
28 24 18 3 3 2 1 3 2 1 1 2 1 3 1 2 1 3 1 3 2 3 3 6 4 4 11 3 5 6 9 5 1 4 8 7 7 4 2 2 2 4 2 2 6 5 8 5 0 6 4 8 7 8 9 5 6 7 6 6 5 5 4 5 6 6 9 12 6 3 9 11 15 15 16 14 15 18 19 18 20 19 19 19 18 11 8 9
24 20 10 2 6 2 4 2 1 1 2 0 3 1 1 2 1 1 4 3 1 2 6 2 4 9 10 6 2 5 2 4 3 2 3 1 3 4 2 3 1 1 7 2 6 7 4 2 2 3 2 5 6 7 8 8 8 8 8 7 7 9 9 9 9 7 8 7 8 9 7 11 10 13 16 19 19 19 20 19 19 19 19 19 20 16 10 11
22 14 1 1 4 4 3 3 2 2 1 2 2 1 2 3 1 2 2 1 5 1 3 2 9 8 1 1 5 6 5 3 4 7 4 3 1 4 0 3 4 1 3 2 4 3 8 6 3 3 1 5 10 10 10 8 3 9 8 8 9 10 8 8 7 8 9 9 4 4 3 5 7 7 9 15 17 19 19 20 20 21 22 21 21 21 18 14
21 5 1 1 1 4 6 4 2 2 1 1 6 3 2 1 1 1 1 1 3 4 5 3 7 3 2 1 1 1 2 4 3 10 4 4 5 4 4 1 2 1 2 5 2 2 7 9 6 4 2 5 10 12 11 10 11 10 4 3 9 14 9 11 7 7 7 8 9 9 8 4 8 9 11 13 15 15 17 20 22 21 20 19 16 16 14 13
9 2 1 1 2 2 2 2 3 3 2 3 3 3 1 1 1 2 1 3 0 3 10 9 3 2 1 3 0 0 2 2 6 6 2 2 7 4 1 2 4 9 3 3 1 6 3 5 2 2 4 7 9 4 7 9 8 4 8 13 12 2 3 6 5 1 2 5 13 9 10 13 12 15 16 16 18 19 18 21 22 21 20 18 16 15 15 13
4 5 2 5 4 5 3 1 1 1 3 5 3 1 0 2 2 4 1 4 4 3 2 4 2 2 2 4 4 4 3 3 3 3 6 5 5 5 2 3 3 6 6 1 3 5 6 13 4 8 12 7 8 8 9 11 11 1 6 7 3 3 2 8 9 3 7 12 10 6 13 13 10 10 6 7 9 11 13 14 18 23 17 11 11 11 13 12
4 3 1 2 5 5 2 1 2 3 4 5 2 2 1 1 2 2 1 3 1 3 2 2 2 1 1 3 6 3 10 6 2 5 9 3 5 3 2 2 6 6 6 5 4 1 1 11 4 11 8 2 2 4 6 10 10 12 6 3 6 5 10 8 4 8 10 10 8 9 11 12 14 15 13 14 16 12 10 12 16 14 12 14 13 13 13 11
1 1 1 3 5 4 4 2 4 2 3 4 1 0 0 4 2 3 1 1 2 2 0 3 1 1 1 3 4 6 6 8 10 9 7 1 3 4 5 2 3 5 4 7 4 2 3 5 6 3 5 2 1 2 7 5 11 11 4 7 3 5 7 7 8 3 3 9 7 11 9 13 10 10 11 12 13 10 10 11 12 17 15 8 9 10 9 10
3 1 1 2 6 5 4 2 4 7 6 3 0 1 0 3 3 5 2 2 1 2 1 0 2 2 1 5 2 8 3 6 10 10 4 2 6 4 6 4 2 5 5 9 7 5 3 5 10 1 2 4 7 4 4 6 6 9 9 10 5 6 3 5 1 9 8 8 9 9 12 12 10 5 3 5 5 6 7 13 14 12 15 17 15 14 14 13
1 1 1 3 8 7 1 8 8 6 2 1 2 2 1 2 6 3 2 1 2 0 1 2 2 2 2 3 5 2 7 9 9 7 5 5 5 5 2 3 2 2 4 6 8 4 3 5 9 6 5 6 10 5 7 6 8 9 11 11 11 9 8 9 7 2 5 9 9 8 14 14 9 5 2 6 7 11 9 11 15 13 15 15 16 16 14 12
3 3 3 6 8 7 4 5 4 0 2 1 3 1 3 4 3 4 4 1 1 1 2 1 2 3 2 3 4 5 9 9 5 6 6 7 5 6 2 2 3 3 2 5 5 8 7 1 7 12 11 10 7 10 10 10 8 4 8 11 10 10 8 7 8 4 5 9 9 8 9 19 2 6 6 5 8 8 12 17 17 14 14 16 16 15 14 12
4 2 6 6 7 3 3 4 2 2 1 1 4 2 2 3 3 2 4 3 3 1 2 1 1 1 1 2 2 6 7 9 9 6 3 4 10 12 10 4 6 6 5 4 2 6 5 4 6 14 11 10 7 5 7 9 11 8 7 5 3 9 11 11 10 5 8 6 7 7 10 15 2 6 6 7 6 9 14 16 18 14 13 14 16 14 15 14
0 2 5 4 5 3 7 3 4 3 2 3 1 3 1 3 3 7 3 3 1 2 1 1 2 2 3 1 3 7 4 5 3 7 7 4 8 1 5 6 5 7 3 3 3 5 3 2 4 8 8 1 1 2 2 4 3 7 6 6 9 8 6 4 4 1 6 12 10 8 14 13 8 6 4 5 9 12 12 14 17 15 14 13 14 13 13 14
1 2 2 6 7 6 5 1 0 1 2 5 4 6 7 3 1 5 7 4 1 2 1 1 1 2 2 1 5 6 4 8 7 7 10 11 11 4 10 10 6 12 12 10 10 3 4 4 2 5 7 8 9 5 2 0 6 4 5 7 7 11 12 6 8 8 11 11 11 11 14 17 18 4 7 10 13 13 12 12 15 8 10 16 16 14 15 13
4 1 3 3 5 4 4 1 3 1 1 3 2 2 2 6 4 4 3 4 1 4 3 1 1 2 1 8 8 6 5 6 8 7 7 10 11 6 3 13 16 15 19 18 10 10 3 2 8 10 7 8 11 3 1 1 1 7 6 9 10 11 12 12 7 7 14 6 7 17 19 20 20 18 12 11 11 12 12 8 12 15 12 13 16 15 14 13
1 3 2 4 3 4 4 3 4 3 1 0 0 3 4 5 7 5 2 3 1 6 3 1 0 4 5 9 9 11 6 7 9 14 15 15 10 12 15 16 18 14 12 8 2 7 2 6 10 11 14 14 15 9 8 8 11 11 11 9 7 8 10 12 11 14 2 5 14 17 19 16 22 22 19 16 11 7 8 10 13 16 14 12 14 16 21 17
2 0 1 2 1 3 3 1 4 2 0 2 1 1 3 5 7 7 5 1 7 4 3 1 0 2 5 6 9 7 10 14 10 6 10 7 11 15 16 6 10 3 6 3 4 1 3 5 6 4 14 12 12 11 11 12 13 12 12 11 11 8 8 13 17 15 7 11 17 19 4 10 19 19 17 12 8 8 7 14 18 19 18 17 13 12 18 17
2 0 1 2 1 1 2 5 5 3 3 3 1 3 4 5 6 4 3 7 7 4 2 2 4 8 9 9 5 7 10 9 7 12 10 10 10 16 12 16 1 3 6 2 2 3 2 6 8 8 14 12 11 10 10 13 13 12 11 13 13 11 12 13 16 15 16 19 20 22 20 21 20 19 15 14 9 8 9 13 14 17 18 17 15 15 15 14
3 2 1 2 1 3 3 2 2 3 0 3 1 2 2 4 7 10 6 3 5 3 1 2 10 10 12 10 8 8 8 9 14 16 16 14 22 6 10 9 12 8 5 7 3 4 3 5 1 6 7 10 7 6 8 11 12 12 11 11 11 11 12 13 13 16 16 18 20 21 22 22 22 9 11 12 8 8 7 13 18 18 17 16 17 18 16 14
1 1 0 1 2 1 1 2 2 1 1 1 1 3 5 3 7 11 11 7 10 4 2 8 11 15 12 11 12 13 12 12 14 19 21 17 18 12 3 8 2 12 15 11 3 3 4 6 3 3 8 7 3 2 5 2 6 8 7 8 9 10 12 13 13 13 14 17 16 15 16 17 14 6 8 10 10 10 11 15 17 14 14 15 17 18 18 16
1 1 1 0 1 2 2 1 1 1 0 1 1 2 3 6 8 9 9 2 5 7 8 8 11 12 12 11 13 12 16 17 21 23 19 16 16 19 15 18 17 11 8 9 7 6 3 4 7 6 7 6 3 2 4 8 5 3 4 5 7 10 12 12 12 10 13 13 12 12 17 12 10 10 13 16 11 9 9 11 13 16 14 14 17 18 18 17
Wind_Direction
352 351 350 350 349 346 347 346 345 344 343 342 342 341 340 340 338 336 336 335 333 332 333 332 333 333 333 333 333 334 338 340 319 341 354 134 259 277 346 309 318 319 331 331 3 52 359 9 3 352 130 228 144 213 132 197 167 168 206 219 232 225 213 179 208 190 170 197 197 200 200 213 228 192 210 182 204 225 190 197 114 73 58 52 106 130 135 143
351 349 347 345 347 345 344 343 343 343 340 342 340 339 339 338 337 336 335 333 334 331 332 331 332 332 331 330 332 337 340 324 316 300 246 317 291 299 320 338 330 334 328 335 29 52 50 5 345 350 138 194 35 203 131 188 209 201 194 218 234 214 224 158 224 188 189 218 185 206 200 211 226 204 167 240 221 208 236 197 154 125 89 89 112 130 138 148
349 348 346 344 345 345 342 341 341 340 340 340 339 337 337 337 336 334 335 332 333 332 332 330 330 330 329 329 330 342 342 321 246 48 20 27 35 33 13 334 331 347 1 335 325 96 17 286 288 317 11 197 65 190 202 179 189 224 226 223 230 51 73 54 34 97 28 349 220 203 206 215 217 209 103 229 242 217 227 200 154 182 179 148 134 143 150 161
348 347 346 345 345 342 341 340 339 339 338 338 337 334 333 335 336 333 334 332 333 333 332 331 329 329 327 326 331 335 330 279 90 320 28 350 52 29 0 350 343 356 297 42 152 294 185 112 140 354 112 238 99 247 193 168 208 122 224 237 284 23 182 83 32 32 13 10 6 336 349 253 8 300 225 225 241 239 235 196 190 186 194 167 160 160 163 171
348 347 345 344 344 342 341 339 340 340 337 337 336 336 335 333 332 331 329 331 331 332 330 330 329 326 327 327 326 338 293 261 127 170 343 359 38 26 22 18 50 352 39 122 153 63 106 49 161 54 35 167 91 169 251 3 344 321 234 29 41 358 259 70 16 36 5 40 353 351 268 4 318 259 230 227 235 240 233 178 201 185 195 163 164 172 172 176
348 346 345 342 345 344 341 339 342 338 336 335 335 333 331 330 326 326 326 326 327 326 326 324 326 327 325 328 322 234 252 301 42 13 328 26 21 353 17 17 14 74 151 48 57 329 31 4 338 62 89 189 146 209 87 322 360 236 135 14 36 22 311 337 4 9 5 11 1 330 14 326 353 287 315 296 247 251 39 202 204 205 190 178 167 162 174 181
349 346 345 344 345 342 340 341 339 336 334 334 331 330 328 325 322 321 322 323 320 319 317 318 321 324 333 325 321 342 37 299 23 344 350 1 5 353 355 9 17 45 44 46 29 39 25 57 76 70 91 60 76 253 27 325 326 283 274 15 18 355 333 343 333 311 345 344 321 309 332 315 338 285 354 268 251 265 285 305 316 270 190 126 140 168 175 184
349 347 347 347 343 341 339 340 337 335 333 330 329 326 325 323 321 319 319 318 316 312 309 310 315 324 349 338 334 298 87 309 339 328 345 353 358 345 333 5 17 23 48 48 14 27 3 44 57 170 83 251 75 244 13 291 60 250 229 16 349 346 343 325 328 326 324 312 259 286 291 282 256 276 300 267 262 271 274 306 311 307 121 186 169 173 181 186
348 348 348 345 343 341 338 338 337 332 331 330 327 325 321 319 317 315 316 316 312 307 303 302 309 343 40 292 50 306 69 277 229 325 341 352 344 334 349 332 6 31 70 39 29 47 359 82 64 350 207 180 130 299 42 347 203 64 7 332 336 325 330 321 318 320 325 320 151 289 272 265 262 291 260 260 266 264 275 283 285 299 158 182 206 210 181 183
350 348 346 345 344 341 339 338 335 333 331 330 328 324 322 320 317 315 313 311 307 303 298 293 299 44 353 345 272 341 22 288 319 304 341 344 338 339 44 50 7 360 345 343 336 8 23 12 335 258 172 223 134 266 145 219 19 331 322 325 314 307 298 314 301 302 308 300 293 283 284 280 265 208 260 58 58 9 276 283 259 252 235 191 204 210 239 202
347 347 346 346 344 341 339 339 335 333 332 329 327 323 323 323 319 316 316 311 305 302 302 294 306 56 13 333 18 69 7 326 316 321 335 338 337 357 314 8 41 25 354 16 348 337 316 307 231 119 233 24 224 178 231 81 348 297 331 303 261 303 255 255 266 270 285 272 272 256 272 284 265 222 245 93 22 14 342 355 345 241 238 219 202 205 212 224
347 346 345 344 344 342 340 338 335 334 331 328 324 322 325 324 319 319 322 316 303 304 328 324 88 110 106 45 207 328 93 267 313 313 319 331 344 293 273 88 80 331 350 323 310 270 223 337 156 304 286 2 254 278 186 32 275 316 292 301 325 318 287 215 235 236 206 248 233 36 292 260 248 243 230 109 235 358 326 310 252 249 252 251 227 210 208 220
347 346 345 343 342 341 341 337 335 334 330 327 323 321 324 325 319 326 326 317 316 232 194 131 116 116 306 68 225 239 270 287 305 308 305 119 292 235 246 223 199 199 239 256 284 16 159 176 151 296 56 306 336 294 75 280 304 265 219 288 294 274 281 41 260 268 236 231 208 171 249 232 235 247 258 84 258 240 268 269 250 225 240 241 249 234 223 206
347 346 345 343 342 341 340 338 335 333 330 327 322 321 325 326 323 332 349 32 112 113 138 108 106 90 72 241 263 247 257 290 281 287 345 286 337 344 121 134 197 194 161 232 274 271 239 205 241 277 134 251 285 12 292 343 241 276 301 209 277 295 218 120 1 73 216 215 204 204 249 249 245 251 76 73 126 193 264 259 251 231 228 233 239 242 240 223
346 346 345 344 342 340 340 338 336 333 330 327 321 321 326 328 333 10 68 99 109 122 102 78 49 139 12 288 265 271 251 202 286 292 306 345 354 334 354 347 358 215 197 217 207 72 150 140 184 233 270 34 278 281 272 328 24 301 270 235 140 228 151 327 343 200 242 185 213 220 247 254 265 300 86 239 254 230 248 259 256 210 236 234 235 242 242 238
347 346 345 344 342 341 340 338 336 333 331 324 319 319 328 326 18 71 87 96 106 105 104 137 358 71 217 34 67 149 72 346 327 323 306 331 182 268 305 302 290 189 278 164 184 180 133 166 250 316 247 210 274 302 300 294 184 56 235 248 227 261 273 322 122 1 341 298 243 220 250 309 103 23 29 7 300 273 263 260 258 228 232 232 236 242 244 244
347 346 345 344 344 341 340 339 337 335 330 322 320 320 331 341 113 95 84 65 74 69 121 201 155 47 50 47 235 13 343 287 314 312 313 241 240 251 277 309 78 334 347 153 103 134 121 212 57 190 52 306 33 354 292 262 249 223 118 265 115 263 288 236 347 210 346 346 276 255 259 266 295 311 317 321 339 298 285 274 260 252 241 239 234 234 241 245
347 346 345 345 344 343 341 339 338 335 330 324 325 315 315 288 113 106 72 74 59 42 60 40 97 225 222 131 9 330 332 296 319 312 298 305 262 236 224 232 173 24 22 8 102 219 159 216 348 257 24 132 192 224 222 270 27 12 200 246 231 235 250 270 265 33 342 326 301 285 277 276 282 291 296 303 320 306 289 284 281 265 244 242 238 241 237 239
347 347 345 345 344 343 342 339 338 334 331 323 327 2 104 127 57 103 79 100 199 347 21 13 356 45 327 324 328 271 305 288 298 286 326 353 55 89 78 32 5 282 325 332 91 284 90 200 185 218 239 198 213 217 236 346 105 84 43 325 305 296 267 264 255 290 323 306 297 281 273 284 289 288 291 300 302 293 293 301 289 256 249 249 241 238 243 246
347 346 346 345 344 344 341 340 337 333 334 332 351 13 267 19 352 324 355 27 52 75 313 275 142 266 300 291 311 314 279 317 308 17 298 347 319 7 34 349 57 58 168 273 16 50 352 252 233 237 238 231 226 217 243 229 259 288 257 265 270 273 277 260 268 274 287 289 266 271 278 281 279 278 294 294 293 286 283 283 284 281 269 251 242 237 241 243
347 346 345 345 344 343 340 338 337 332 335 337 322 41 40 359 11 356 334 300 260 292 255 263 224 249 268 326 302 340 360 320 67 328 344 295 150 309 21 322 50 284 329 345 294 40 281 267 251 251 256 243 239 222 224 248 251 261 272 272 274 253 271 274 286 279 260 254 272 271 279 275 274 277 274 274 273 272 271 275 276 278 268 258 251 244 241 245
347 345 345 344 343 341 338 336 335 332 332 321 25 64 95 67 325 323 316 327 330 278 277 272 336 280 270 251 255 302 181 290 322 24 22 327 12 333 42 341 340 307 56 250 253 246 248 255 283 205 235 232 234 219 218 236 253 243 257 269 269 263 265 281 266 250 254 252 271 286 284 281 278 278 274 264 267 269 271 269 270 273 273 265 257 251 246 244
346 344 343 343 341 339 335 333 332 344 356 15 47 60 65 359 290 266 215 263 277 260 294 244 242 259 291 224 256 169 324 4 325 331 360 341 4 63 317 304 297 287 228 242 285 289 280 301 293 234 166 187 205 214 215 228 238 255 250 244 249 256 253 259 155 259 257 251 284 294 292 286 284 273 261 255 258 265 268 263 259 253 257 253 250 245 245 247
344 344 342 341 340 337 332 330 327 27 34 18 43 53 66 335 357 165 158 271 316 313 220 231 271 252 266 329 105 270 332 348 282 338 9 352 13 239 271 350 318 213 275 238 251 268 271 341 100 142 191 207 234 210 205 225 253 225 236 251 258 254 237 250 282 284 287 273 265 279 282 280 274 269 260 247 236 247 252 255 250 240 237 241 244 251 242 245
341 342 342 340 338 336 330 325 49 10 287 255 153 285 315 323 302 170 199 279 208 261 157 225 170 240 236 126 108 309 34 255 232 274 304 17 348 299 8 255 268 295 346 298 256 262 266 251 242 248 229 216 237 242 219 229 255 252 227 237 256 261 256 243 250 271 276 276 244 247 289 271 256 232 248 264 242 244 251 257 257 248 242 238 232 236 238 233
340 340 341 339 338 336 321 293 19 354 339 51 53 321 306 337 291 214 175 45 150 331 318 352 167 59 162 360 302 234 227 169 115 336 293 355 262 310 301 286 65 303 348 330 303 283 296 37 192 227 240 233 227 244 224 200 256 257 266 203 238 244 241 247 250 221 260 255 29 170 252 282 263 264 232 269 287 280 273 260 263 259 249 240 236 228 234 232
338 338 338 338 337 339 348 45 324 261 34 138 215 298 347 329 271 157 258 42 350 60 323 313 270 62 253 1 322 293 299 0 339 33 6 355 13 7 282 302 273 191 115 345 294 259 146 241 234 237 243 242 238 243 204 200 239 256 136 165 208 225 230 239 242 232 255 283 268 246 265 279 283 270 237 253 275 276 273 267 265 266 262 251 240 233 238 242
335 335 335 333 332 337 253 314 341 103 351 78 244 328 348 318 138 61 242 65 342 321 356 334 356 274 359 329 351 33 287 309 318 94 26 336 280 301 292 276 270 271 325 312 279 187 148 285 223 261 249 253 254 249 150 199 222 238 141 198 229 225 239 249 251 250 254 271 267 244 233 256 258 272 151 240 263 268 264 260 262 264 260 238 233 225 231 243
334 332 332 330 327 338 238 198 165 240 68 334 326 317 26 82 85 114 105 177 71 306 155 88 136 108 335 315 22 34 301 353 331 328 324 251 63 312 295 299 247 288 216 234 256 278 236 240 250 234 270 261 239 240 214 196 231 252 250 255 263 253 242 241 243 247 250 240 256 244 219 253 268 267 251 226 254 267 269 269 268 267 272 276 238 217 233 242
333 332 331 329 326 123 126 147 220 246 295 279 305 64 110 67 193 158 38 296 21 340 40 297 331 326 347 347 310 354 353 17 258 317 323 339 338 345 197 28 304 279 264 226 248 258 277 285 281 272 251 240 240 251 218 205 230 148 327 273 246 222 243 230 236 245 250 242 251 253 238 236 274 268 244 229 248 265 275 276 269 265 263 262 261 228 240 244
332 331 332 330 191 190 157 265 254 217 273 310 68 98 117 50 98 97 89 329 274 272 301 63 347 341 357 6 337 5 220 294 323 338 323 270 285 347 273 191 108 236 263 242 248 268 284 271 231 242 247 230 215 254 220 224 232 228 250 253 288 269 214 223 210 200 236 251 247 246 248 228 256 257 240 227 251 257 260 265 267 266 265 268 267 239 229 239
332 332 333 315 167 146 232 353 123 153 290 255 116 96 139 271 11 69 239 23 296 334 334 325 342 360 328 16 210 320 333 315 353 346 351 345 321 334 3 301 11 319 267 5 305 332 291 262 310 270 222 227 211 233 241 198 191 204 220 243 256 261 270 262 209 208 223 248 257 202 229 242 234 252 268 263 246 246 245 250 258 263 264 265 269 250 229 233
331 333 332 99 159 202 237 248 101 31 327 319 87 74 53 90 1 255 283 358 254 22 331 137 301 333 313 312 305 315 217 312 352 308 321 318 325 268 240 232 170 265 307 54 295 320 272 226 353 231 276 198 211 222 232 235 214 212 215 217 233 249 244 247 242 255 266 248 253 256 238 252 266 260 240 248 255 255 255 253 253 255 259 264 267 265 232 234
330 331 351 216 211 232 265 254 270 344 317 74 137 35 46 54 321 141 292 266 294 41 292 339 318 320 97 317 341 348 332 177 1 340 339 292 216 315 314 186 187 185 231 311 289 356 318 329 174 174 36 163 210 221 236 245 200 221 220 206 230 246 227 230 237 242 251 272 274 207 268 221 234 240 198 235 245 252 251 253 253 252 252 253 255 257 252 238
326 309 246 331 275 248 247 263 248 203 158 249 49 78 97 247 230 281 287 309 296 297 285 356 308 345 307 243 293 225 88 313 59 332 337 329 330 315 290 23 201 178 121 301 127 287 249 257 283 178 11 171 207 222 238 243 257 247 197 213 227 234 241 253 272 270 276 282 270 237 236 268 248 321 304 284 274 266 265 262 257 250 249 251 253 251 250 241
332 332 288 43 332 338 304 274 132 165 282 20 75 41 58 152 335 152 273 212 343 329 314 318 158 330 309 305 173 168 161 292 328 339 270 301 291 263 205 216 182 188 161 294 19 301 278 255 219 258 206 225 226 194 215 201 232 201 189 222 235 79 214 257 252 226 26 262 261 265 270 263 271 268 267 267 272 269 253 253 260 259 252 248 246 247 247 244
5 323 78 332 319 338 342 116 168 266 65 87 92 77 255 278 215 171 268 334 302 334 59 346 355 1 335 322 324 326 348 230 258 358 317 334 299 189 224 231 165 175 229 344 275 211 272 282 244 281 275 214 243 233 239 199 226 83 222 239 108 154 238 235 248 180 222 247 259 240 256 273 275 284 257 269 293 320 307 290 272 260 255 265 270 259 254 246
336 344 255 301 329 318 303 226 261 36 74 75 59 106 25 351 117 249 304 350 346 52 85 120 274 24 334 320 317 342 338 312 335 328 311 315 292 148 264 296 176 189 189 160 234 9 162 290 276 207 223 147 130 172 232 232 233 234 235 43 221 197 211 207 247 235 238 243 263 254 268 270 263 264 279 287 283 292 310 321 324 314 274 250 249 248 239 234
258 294 85 347 336 327 311 247 61 65 68 61 13 37 259 263 270 249 248 276 168 121 234 217 222 346 36 302 274 305 326 324 326 321 325 94 300 152 230 208 207 213 188 159 217 184 184 256 296 125 169 52 257 153 277 228 205 235 302 270 267 285 235 215 215 270 254 257 264 271 258 264 253 256 273 295 292 269 293 302 309 309 307 297 289 275 263 263
19 15 336 316 325 331 325 51 52 44 55 69 225 242 108 278 290 281 250 239 249 174 263 297 192 301 272 253 281 312 299 280 315 308 266 248 261 248 258 186 242 187 220 185 213 156 238 190 272 202 169 40 278 178 219 253 220 198 211 238 228 230 310 262 210 229 240 258 258 282 283 267 261 214 223 279 299 281 271 286 285 285 301 306 293 277 271 268
276 109 307 297 340 320 349 40 43 31 74 208 189 266 341 298 325 290 352 284 256 211 285 210 171 195 239 321 316 341 310 309 301 293 259 270 206 330 148 177 172 288 179 213 228 167 253 205 251 269 272 236 254 220 213 222 267 234 212 222 220 221 218 220 231 169 244 245 254 264 269 283 263 137 255 288 268 284 293 280 277 279 283 279 272 272 270 270
1 17 347 344 344 344 46 58 43 87 58 45 353 348 309 337 288 291 317 42 59 2 59 278 206 242 247 253 285 322 319 305 275 284 252 240 212 210 265 130 213 254 281 266 239 184 206 263 251 266 255 260 268 280 281 243 218 264 221 222 215 228 234 239 247 213 218 236 255 256 289 280 223 132 155 212 259 269 282 278 266 267 272 278 271 269 273 267
35 282 296 312 341 353 59 87 173 54 40 301 293 209 249 273 250 278 314 346 337 126 314 301 232 284 216 284 344 326 329 291 268 253 259 264 262 236 261 201 238 273 248 283 271 226 192 254 253 261 271 255 245 294 293 234 217 240 234 243 209 216 215 231 240 243 242 230 235 240 244 262 245 144 182 194 209 262 256 263 276 279 278 275 278 280 279 279
194 298 325 306 356 38 68 48 352 353 341 323 34 301 266 279 316 328 327 313 313 333 324 291 326 179 298 52 296 300 323 305 274 247 272 260 279 222 263 270 250 267 192 234 270 139 234 202 224 294 306 200 140 244 115 69 204 221 231 207 227 236 238 266 310 342 266 246 243 252 260 262 266 151 207 188 226 247 260 281 282 283 284 285 286 284 281 281
239 211 254 303 343 21 78 88 233 269 357 341 329 350 357 325 243 296 292 287 324 334 352 256 240 304 278 57 289 267 252 222 288 267 267 275 274 289 289 266 252 270 255 243 245 106 223 243 190 274 286 307 305 323 353 273 210 216 235 227 221 223 222 225 230 227 249 248 229 244 255 259 268 237 201 241 265 269 268 254 275 273 280 289 286 280 277 276
13 12 330 336 17 25 83 60 84 72 4 350 5 1 340 321 309 317 224 279 112 348 253 244 39 83 303 328 323 311 296 224 220 293 295 290 296 304 134 320 303 289 283 272 251 123 254 245 229 238 248 264 270 253 193 336 270 226 206 210 219 215 221 222 237 234 235 232 224 238 242 265 274 273 259 244 242 266 276 289 294 289 268 259 272 276 273 272
156 64 340 341 333 70 97 45 42 14 31 191 45 3 333 330 308 311 37 296 58 354 301 129 359 23 334 343 334 322 284 276 252 271 270 279 279 282 307 297 289 290 309 331 119 136 257 276 242 238 244 243 265 263 244 235 252 256 244 231 227 226 216 216 217 233 219 254 260 250 241 246 264 269 268 269 267 255 280 295 287 280 272 272 270 288 290 277
46 162 136 116 323 325 8 65 30 335 258 206 233 33 331 331 1 353 316 237 327 314 320 134 64 71 314 316 313 295 313 311 298 259 301 284 307 318 318 320 307 355 47 57 110 132 279 266 281 189 252 252 264 260 240 241 246 247 245 248 247 240 233 228 237 245 249 244 248 262 250 240 262 268 279 295 313 307 284 287 283 283 287 280 267 262 261 260
83 95 129 327 264 215 212 307 321 335 308 202 217 14 352 347 334 347 313 313 326 306 3 298 304 325 321 320 311 297 304 324 318 307 300 306 315 323 310 330 87 101 72 61 224 204 270 241 275 261 275 275 268 259 232 228 233 233 235 241 242 244 241 242 252 254 243 244 255 269 279 279 275 279 294 304 309 287 283 284 284 288 288 292 294 279 273 268
21 360 357 348 285 285 292 321 341 344 286 354 332 37 328 331 322 330 318 257 299 281 5 266 305 320 325 314 304 285 268 265 281 293 297 315 309 308 294 255 279 305 350 333 284 207 178 279 353 296 289 281 280 227 224 224 225 233 242 252 247 239 244 245 252 256 262 265 263 266 273 277 273 288 291 301 301 278 265 281 291 295 299 299 297 293 282 277
98 71 157 345 336 309 268 323 334 349 326 19 25 352 332 315 330 335 308 257 233 251 338 330 329 321 322 312 297 279 269 268 272 268 273 281 278 285 301 289 267 309 316 315 293 270 190 275 305 286 308 315 116 30 331 291 207 222 252 262 261 257 258 255 249 243 234 248 257 263 262 259 280 350 312 288 287 286 285 290 296 298 302 302 300 297 292 287
12 85 253 255 300 10 336 326 273 226 269 108 348 352 339 309 318 326 319 202 229 243 279 304 319 312 296 295 290 295 311 305 292 283 278 270 256 264 255 254 271 274 295 285 293 287 229 288 312 322 313 291 123 17 52 109 135 143 228 248 264 259 248 264 267 260 241 243 257 254 258 276 320 335 313 303 302 289 291 300 309 302 298 300 297 293 291 287